TimeCST,TemperatureF,Dew PointF,Humidity,Sea Level PressureIn,VisibilityMPH,Wind Direction,Wind SpeedMPH,Gust SpeedMPH,PrecipitationIn,Events,Conditions,WindDirDegrees,DateUTC
12:52 AM,30.9,23.0,72,30.16,10.0,SSW,9.2,-,N/A,,Overcast,210,2012-12-12 06:52:00
1:52 AM,32.0,23.0,69,30.17,10.0,SSW,11.5,-,N/A,,Overcast,210,2012-12-12 07:52:00
2:52 AM,30.0,21.9,72,30.19,10.0,SSW,12.7,-,N/A,,Mostly Cloudy,210,2012-12-12 08:52:00
3:52 AM,28.0,21.9,78,30.19,10.0,SW,9.2,-,N/A,,Scattered Clouds,220,2012-12-12 09:52:00
4:52 AM,25.0,19.9,81,30.21,10.0,SSW,9.2,-,N/A,,Clear,210,2012-12-12 10:52:00
5:52 AM,26.1,21.0,81,30.23,10.0,SW,8.1,-,N/A,,Clear,220,2012-12-12 11:52:00
6:52 AM,26.1,21.0,81,30.25,10.0,SSW,9.2,-,N/A,,Clear,210,2012-12-12 12:52:00
7:52 AM,28.9,21.9,75,30.25,9.0,SW,10.4,-,N/A,,Clear,220,2012-12-12 13:52:00
8:52 AM,33.1,23.0,66,30.27,10.0,SW,11.5,-,N/A,,Clear,220,2012-12-12 14:52:00
9:52 AM,37.9,23.0,55,30.29,10.0,SSW,10.4,-,N/A,,Clear,210,2012-12-12 15:52:00
10:52 AM,42.1,21.9,45,30.28,10.0,SW,16.1,23.0,N/A,,Clear,220,2012-12-12 16:52:00
11:52 AM,44.1,21.9,42,30.26,10.0,SSW,20.7,26.5,N/A,,Clear,210,2012-12-12 17:52:00
12:52 PM,45.0,21.9,40,30.26,10.0,SSW,20.7,26.5,N/A,,Clear,210,2012-12-12 18:52:00
1:52 PM,45.0,23.0,42,30.23,10.0,SSW,16.1,28.8,N/A,,Clear,210,2012-12-12 19:52:00
2:52 PM,45.0,23.0,42,30.23,10.0,South,17.3,24.2,N/A,,Clear,190,2012-12-12 20:52:00
3:52 PM,43.0,24.1,47,30.25,10.0,South,13.8,24.2,N/A,,Clear,190,2012-12-12 21:52:00
4:52 PM,41.0,24.1,51,30.26,10.0,South,9.2,-,N/A,,Clear,180,2012-12-12 22:52:00
5:52 PM,39.0,24.1,55,30.26,10.0,South,9.2,-,N/A,,Clear,170,2012-12-12 23:52:00
6:52 PM,37.9,26.1,62,30.27,10.0,South,15.0,-,N/A,,Clear,170,2012-12-13 00:52:00
7:52 PM,37.9,27.0,65,30.26,10.0,South,15.0,-,N/A,,Clear,180,2012-12-13 01:52:00
8:52 PM,37.0,27.0,67,30.25,10.0,South,17.3,-,N/A,,Clear,190,2012-12-13 02:52:00
9:52 PM,36.0,27.0,70,30.26,10.0,South,15.0,-,N/A,,Clear,190,2012-12-13 03:52:00
10:52 PM,37.0,27.0,67,30.25,10.0,South,16.1,-,N/A,,Clear,190,2012-12-13 04:52:00
11:52 PM,37.0,27.0,67,30.25,10.0,SSW,16.1,24.2,N/A,,Clear,200,2012-12-13 05:52:00